Grand Rapids, MI

12:52 AM EDT on July 28, 2017 (GMT -0400)
Gerald R. Ford International

Weather History for KGRR - September, 2013

Change the Weather History Date:

Monday, September 23, 2013

  Actual Average Record
Temperature  
Mean Temperature 52 °F 60 °F  
Max Temperature 65 °F 70 °F 90 °F (1937)
Min Temperature 38 °F 50 °F 28 °F (1974)
Degree Days  
Heating Degree Days 13 6  
Month to date heating degree days 85 77  
Since 1 July heating degree days 111 97  
Cooling Degree Days 0 1  
Month to date cooling degree days 82 60  
Year to date cooling degree days 752 685  
Moisture  
Dew Point 41 °F    
Average Humidity 68    
Maximum Humidity 92    
Minimum Humidity 44    
Precipitation  
Precipitation 0.00 in 0.15 in 2.13 in (2000)
Month to date precipitation 1.00 3.31  
Year to date precipitation 33.32 28.03  
Snow  
Snow 0.00 in 0.00 in T in (1928)
Month to date snowfall 0.0 0.0  
Since 1 July snowfall 0.0 0.0  
Since 1 September snowfall 0.0 0.0  
Snow Depth 0.00 in    
Sea Level Pressure  
Sea Level Pressure 30.15 in    
Wind  
Wind Speed 5 mph (ESE)    
Max Wind Speed 16 mph    
Max Gust Speed 22 mph    
Visibility 10 miles    
Events Fog    
T = Trace of Precipitation, MM = Missing Value Source: NWS Daily Summary

Daily Weather History Graph

Daily Weather History Graph

Search for Another Location

Airport or City:

Trip Planner

Search our weather history database for the weather conditions in past years. The results will help you decide how hot, cold, wet, or windy it might be!

Date:

Astronomy

Sep. 23, 2013 Rise Set
Actual Time 7:30 AM EDT 7:37 PM EDT
Civil Twilight 7:02 AM EDT 8:05 PM EDT
Nautical Twilight 6:29 AM EDT 8:38 PM EDT
Astronomical Twilight 5:55 AM EDT 9:12 PM EDT
Moon 10:01 PM EDT (9/23) 11:56 AM EDT (9/23)
Length of Visible Light 13h 02m
Length of Day
12h 06m
Waning Gibbous, 81% of the Moon is Illuminated
Sep 23
Waning Gibbous
Sep 26
Last Quarter
Oct 4
New
Oct 11
First Quarter
Oct 18
Full

Hourly Weather History & Observations

Time (EDT) Temp. Windchill Dew Point Humidity Pressure Visibility Wind Dir Wind Speed Gust Speed Precip Events Conditions
12:53 AM 43.0 °F - 39.9 °F 89% 30.12 in 10.0 mi Calm Calm - N/A   Clear
1:53 AM 42.1 °F - 39.0 °F 89% 30.12 in 10.0 mi Calm Calm - N/A   Clear
2:53 AM 42.1 °F - 39.0 °F 89% 30.13 in 10.0 mi Calm Calm - N/A   Clear
3:53 AM 41.0 °F - 37.9 °F 89% 30.13 in 10.0 mi Calm Calm - N/A   Partly Cloudy
4:53 AM 39.9 °F 37.8 °F 37.0 °F 89% 30.13 in 10.0 mi ENE 3.5 mph - N/A   Overcast
5:53 AM 39.0 °F 34.8 °F 36.0 °F 89% 30.14 in 10.0 mi East 5.8 mph - N/A   Scattered Clouds
6:53 AM 39.0 °F 36.8 °F 36.0 °F 89% 30.16 in 10.0 mi ENE 3.5 mph - N/A   Partly Cloudy
7:53 AM 39.0 °F - 36.0 °F 89% 30.19 in 10.0 mi Calm Calm - N/A Fog Patches of Fog
8:53 AM 44.1 °F 41.5 °F 39.9 °F 85% 30.20 in 10.0 mi East 4.6 mph - N/A   Mostly Cloudy
9:53 AM 50.0 °F - 41.0 °F 71% 30.19 in 10.0 mi East 11.5 mph - N/A   Partly Cloudy
10:53 AM 55.0 °F - 39.9 °F 57% 30.20 in 10.0 mi ESE 13.8 mph - N/A   Partly Cloudy
11:53 AM 57.9 °F - 41.0 °F 53% 30.19 in 10.0 mi East 10.4 mph - N/A   Scattered Clouds
12:53 PM 59.0 °F - 42.1 °F 53% 30.19 in 10.0 mi South 5.8 mph - N/A   Scattered Clouds
1:53 PM 61.0 °F - 41.0 °F 48% 30.19 in 10.0 mi Variable 3.5 mph - N/A   Scattered Clouds
2:53 PM 63.0 °F - 42.1 °F 46% 30.17 in 10.0 mi South 6.9 mph - N/A   Partly Cloudy
3:53 PM 64.0 °F - 42.1 °F 45% 30.14 in 10.0 mi ESE 8.1 mph - N/A   Partly Cloudy
4:53 PM 64.0 °F - 43.0 °F 46% 30.13 in 10.0 mi SE 5.8 mph - N/A   Partly Cloudy
5:53 PM 64.0 °F - 43.0 °F 46% 30.13 in 10.0 mi SE 5.8 mph - N/A   Partly Cloudy
6:53 PM 62.1 °F - 44.1 °F 52% 30.13 in 10.0 mi SSE 8.1 mph - N/A   Partly Cloudy
7:53 PM 55.9 °F - 45.0 °F 67% 30.13 in 10.0 mi Calm Calm - N/A   Partly Cloudy
8:53 PM 54.0 °F - 45.0 °F 72% 30.14 in 10.0 mi East 3.5 mph - N/A   Clear
9:53 PM 50.0 °F - 44.1 °F 80% 30.14 in 10.0 mi East 5.8 mph - N/A   Clear
10:53 PM 48.0 °F - 42.1 °F 80% 30.14 in 10.0 mi East 6.9 mph - N/A   Clear
11:53 PM 48.0 °F - 42.1 °F 80% 30.14 in 10.0 mi East 4.6 mph - N/A   Clear